E27EKO-13 Weather Reports


time (UTC)temp
F
wind
direction
speed
knots
gust
knots
rain 1hr
in
rain 24hr
in
rain mn
in
humidity
%
barometer
mb
20260504172727 379 0 0.0 0.0 0.00 0.00 0.00 100
20260504172205 379 0 0.0 0.0 0.00 0.00 0.00 100
20260504171643 379 0 0.0 0.0 0.00 0.00 0.00 100
20260504171121 379 0 0.0 0.0 0.00 0.00 0.00 100
20260504170559 379 0 0.0 0.0 0.00 0.00 0.00 100
20260504160154 85 0 0.0 0.0 0.00 0.00 0.00 99 1011.0
20260504150939 87 0 0.0 0.0 0.00 0.00 0.00 91 1010.0
20260504150417 87 0 0.0 0.0 0.00 0.00 0.00 91 1010.0
20260504140859 86 0 0.0 0.0 0.00 0.00 0.00 94 1009.0
20260504130606 88 0 0.0 0.0 0.00 0.00 0.00 84 1008.0
20260504110645 90 0 0.0 0.0 0.00 0.00 0.00 75 1006.0
20260504110123 90 0 0.0 0.0 0.00 0.00 0.00 75 1006.0
20260504100152 90 0 0.0 0.0 0.00 0.00 0.00 75 1007.0
20260504081658 90 0 0.0 0.0 0.00 0.00 0.00 68 1006.0
20260504081136 92 0 0.0 0.0 0.00 0.00 0.00 64 1007.0
20260504080614 94 0 0.0 0.0 0.00 0.00 0.00 60 1007.0
20260504060146 107 0 0.0 0.0 0.00 0.00 0.00 51 1007.0
20260504050243 105 0 0.0 0.0 0.00 0.00 0.00 52 1009.0
20260504045721 105 0 0.0 0.0 0.00 0.00 0.00 53 1009.0
20260504045159 104 0 0.0 0.0 0.00 0.00 0.00 54 1009.0
20260504044637 104 0 0.0 0.0 0.00 0.00 0.00 55 1009.0
20260504044115 104 0 0.0 0.0 0.00 0.00 0.00 54 1009.0
20260504043553 105 0 0.0 0.0 0.00 0.00 0.00 53 1009.0
20260504043031 106 0 0.0 0.0 0.00 0.00 0.00 51 1009.0
20260504042510 106 0 0.0 0.0 0.00 0.00 0.00 51 1009.0
20260504041947 106 0 0.0 0.0 0.00 0.00 0.00 51 1009.0
20260504041425 106 0 0.0 0.0 0.00 0.00 0.00 52 1009.0
20260504040903 105 0 0.0 0.0 0.00 0.00 0.00 53 1009.0
20260504040341 104 0 0.0 0.0 0.00 0.00 0.00 54 1009.0
20260504035819 104 0 0.0 0.0 0.00 0.00 0.00 55 1009.0
20260504035257 105 0 0.0 0.0 0.00 0.00 0.00 54 1009.0
20260504034638 105 0 0.0 0.0 0.00 0.00 0.00 53 1009.0
20260504034116 104 0 0.0 0.0 0.00 0.00 0.00 53 1009.0
20260504033554 104 0 0.0 0.0 0.00 0.00 0.00 55 1009.0
20260504033032 103 0 0.0 0.0 0.00 0.00 0.00 54 1010.0
20260504032510 104 0 0.0 0.0 0.00 0.00 0.00 54 1010.0
20260504031947 103 0 0.0 0.0 0.00 0.00 0.00 56 1010.0
20260504031746 104 0 0.0 0.0 0.00 0.00 0.00 55 1010.0
20260504031224 104 0 0.0 0.0 0.00 0.00 0.00 54 1010.0
20260504030702 104 0 0.0 0.0 0.00 0.00 0.00 54 1010.0
20260504030140 105 0 0.0 0.0 0.00 0.00 0.00 53 1010.0
20260504025618 104 0 0.0 0.0 0.00 0.00 0.00 55 1010.0
20260504025056 104 0 0.0 0.0 0.00 0.00 0.00 55 1010.0
20260504024534 105 0 0.0 0.0 0.00 0.00 0.00 55 1010.0
20260504024012 104 0 0.0 0.0 0.00 0.00 0.00 55 1010.0
20260504023655 105 0 0.0 0.0 0.00 0.00 0.00 54 1010.0
20260504023423 105 0 0.0 0.0 0.00 0.00 0.00 54 1010.0
20260504022949 105 0 0.0 0.0 0.00 0.00 0.00 54 1010.0
20260504022427 104 0 0.0 0.0 0.00 0.00 0.00 55 1010.0
20260504021905 103 0 0.0 0.0 0.00 0.00 0.00 57 1010.0
20260504021343 103 0 0.0 0.0 0.00 0.00 0.00 57 1010.0
20260504020821 103 0 0.0 0.0 0.00 0.00 0.00 59 1010.0
20260504020259 102 0 0.0 0.0 0.00 0.00 0.00 61 1010.0
20260504015737 101 0 0.0 0.0 0.00 0.00 0.00 63 1010.0
20260504015215 100 0 0.0 0.0 0.00 0.00 0.00 64 1010.0
20260504014653 99 0 0.0 0.0 0.00 0.00 0.00 65 1010.0
20260504014131 100 0 0.0 0.0 0.00 0.00 0.00 66 1010.0
20260504013609 100 0 0.0 0.0 0.00 0.00 0.00 65 1010.0
20260504013047 100 0 0.0 0.0 0.00 0.00 0.00 67 1010.0
20260504012525 100 0 0.0 0.0 0.00 0.00 0.00 67 1010.0
20260504012003 99 0 0.0 0.0 0.00 0.00 0.00 70 1010.0
20260504011856 98 0 0.0 0.0 0.00 0.00 0.00 71 1010.0
20260504011712 98 0 0.0 0.0 0.00 0.00 0.00 70 1010.0
20260504011150 98 0 0.0 0.0 0.00 0.00 0.00 70 1010.0
20260504010628 99 0 0.0 0.0 0.00 0.00 0.00 67 1010.0
20260504010039 100 0 0.0 0.0 0.00 0.00 0.00 64 1009.0
20260504005517 102 0 0.0 0.0 0.00 0.00 0.00 60 1009.0
20260504004955 108 0 0.0 0.0 0.00 0.00 0.00 54 1009.0
20260504004433 103 0 0.0 0.0 0.00 0.00 0.00 60 1009.0
20260504003911 104 0 0.0 0.0 0.00 0.00 0.00 57 1009.0
20260504003601 103 0 0.0 0.0 0.00 0.00 0.00 58 1009.0
20260504003039 106 0 0.0 0.0 0.00 0.00 0.00 55 1009.0
20260504002517 105 0 0.0 0.0 0.00 0.00 0.00 56 1009.0
20260504001955 102 0 0.0 0.0 0.00 0.00 0.00 60 1009.0
20260504001433 103 0 0.0 0.0 0.00 0.00 0.00 59 1009.0
20260504000911 105 0 0.0 0.0 0.00 0.00 0.00 57 1009.0
20260504000540 105 0 0.0 0.0 0.00 0.00 0.00 56 1009.0
20260504000018 103 0 0.0 0.0 0.00 0.00 0.00 59 1009.0
20260503235456 106 0 0.0 0.0 0.00 0.00 0.00 56 1009.0
20260503234934 104 0 0.0 0.0 0.00 0.00 0.00 59 1008.0
20260503234412 102 0 0.0 0.0 0.00 0.00 0.00 64 1008.0
20260503233850 99 0 0.0 0.0 0.00 0.00 0.00 70 1008.0
20260503233328 96 0 0.0 0.0 0.00 0.00 0.00 76 1008.0
20260503232806 94 0 0.0 0.0 0.00 0.00 0.00 83 1008.0
20260503232244 92 0 0.0 0.0 0.00 0.00 0.00 90 1008.0
20260503231721 89 0 0.0 0.0 0.00 0.00 0.00 97 1008.0
20260503231159 89 0 0.0 0.0 0.00 0.00 0.00 99 1008.0
20260503230709 88 0 0.0 0.0 0.00 0.00 0.00 99 1008.0
20260503230351 88 0 0.0 0.0 0.00 0.00 0.00 99 1008.0
20260503225829 88 0 0.0 0.0 0.00 0.00 0.00 99 1008.0
20260503225603 87 0 0.0 0.0 0.00 0.00 0.00 99 1008.0
20260503225041 87 0 0.0 0.0 0.00 0.00 0.00 99 1008.0
20260503224519 87 0 0.0 0.0 0.00 0.00 0.00 99 1008.0
20260503223957 88 0 0.0 0.0 0.00 0.00 0.00 99 1008.0
20260503223435 87 0 0.0 0.0 0.00 0.00 0.00 99 1008.0
20260503222913 88 0 0.0 0.0 0.00 0.00 0.00 99 1008.0
20260503222351 88 0 0.0 0.0 0.00 0.00 0.00 99 1008.0
20260503221829 88 0 0.0 0.0 0.00 0.00 0.00 99 1008.0
20260503221532 88 0 0.0 0.0 0.00 0.00 0.00 99 1008.0
20260503221010 88 0 0.0 0.0 0.00 0.00 0.00 99 1008.0
20260503220448 88 0 0.0 0.0 0.00 0.00 0.00 99 1008.0
20260503215926 88 0 0.0 0.0 0.00 0.00 0.00 99 1008.0
20260503215404 88 0 0.0 0.0 0.00 0.00 0.00 99 1008.0
20260503214842 88 0 0.0 0.0 0.00 0.00 0.00 98 1008.0
20260503214320 88 0 0.0 0.0 0.00 0.00 0.00 97 1008.0
20260503213758 89 0 0.0 0.0 0.00 0.00 0.00 95 1007.0
20260503213436 89 0 0.0 0.0 0.00 0.00 0.00 96 1007.0
20260503212914 89 0 0.0 0.0 0.00 0.00 0.00 95 1007.0
20260503212352 90 0 0.0 0.0 0.00 0.00 0.00 92 1007.0
20260503211830 90 0 0.0 0.0 0.00 0.00 0.00 92 1007.0
20260503211308 90 0 0.0 0.0 0.00 0.00 0.00 92 1007.0
20260503210746 90 0 0.0 0.0 0.00 0.00 0.00 92 1007.0
20260503210224 90 0 0.0 0.0 0.00 0.00 0.00 92 1007.0
20260503205701 90 0 0.0 0.0 0.00 0.00 0.00 92 1007.0
20260503205139 90 0 0.0 0.0 0.00 0.00 0.00 92 1007.0
20260503204617 90 0 0.0 0.0 0.00 0.00 0.00 92 1007.0
20260503204055 90 0 0.0 0.0 0.00 0.00 0.00 93 1007.0
20260503203533 89 0 0.0 0.0 0.00 0.00 0.00 93 1007.0
20260503203011 89 0 0.0 0.0 0.00 0.00 0.00 93 1007.0
20260503202449 89 0 0.0 0.0 0.00 0.00 0.00 93 1007.0
20260503201927 89 0 0.0 0.0 0.00 0.00 0.00 92 1007.0
20260503201657 89 0 0.0 0.0 0.00 0.00 0.00 93 1007.0
20260503201135 89 0 0.0 0.0 0.00 0.00 0.00 93 1007.0
20260503200613 88 0 0.0 0.0 0.00 0.00 0.00 94 1007.0
20260503200051 89 0 0.0 0.0 0.00 0.00 0.00 93 1007.0
20260503195529 89 0 0.0 0.0 0.00 0.00 0.00 92 1007.0
20260503195007 89 0 0.0 0.0 0.00 0.00 0.00 92 1007.0
20260503190325 89 0 0.0 0.0 0.00 0.00 0.00 87 1008.0
20260503185741 90 0 0.0 0.0 0.00 0.00 0.00 85 1008.0
20260503185219 92 0 0.0 0.0 0.00 0.00 0.00 84 1008.0
20260503184657 92 0 0.0 0.0 0.00 0.00 0.00 84 1008.0
20260503184135 92 0 0.0 0.0 0.00 0.00 0.00 84 1008.0
20260503183613 92 0 0.0 0.0 0.00 0.00 0.00 84 1008.0
20260503175341 92 0 0.0 0.0 0.00 0.00 0.00 84 1008.0
20260503174819 92 0 0.0 0.0 0.00 0.00 0.00 85 1008.0
20260503174257 92 0 0.0 0.0 0.00 0.00 0.00 85 1008.0
20260503173735 92 0 0.0 0.0 0.00 0.00 0.00 85 1008.0
20260503173214 92 0 0.0 0.0 0.00 0.00 0.00 85 1008.0